DateTimeUTC,F1_A11,F1_S11,BsB_S11,BsG_S11,BsR_S11,BbsB_S11,BbsG_S11,BbsR_S11,BaB_A11,BaG_A11,BaR_A11,T_S11,U_S11,P_S11,T1_A11
2020-03-16T00:00:00Z,00000380,21000600,,,,,,,,,,22.8,00.0,0616.5,30.9
2020-03-16T00:01:00Z,00000380,21000600,,,,,,,,,,22.8,00.0,0616.5,30.9
2020-03-16T00:02:00Z,00000380,21000600,,,,,,,,,,22.8,00.0,0616.5,30.9
2020-03-16T00:03:00Z,00000380,61000600,,,,,,,,,,22.8,00.0,0616.5,30.8
2020-03-16T00:04:00Z,00000380,41000600,0001.53,0001.71,0001.21,0000.51,0000.38,0000.26,0000.24,0000.10,0000.11,22.6,00.0,0617.3,30.8
2020-03-16T00:05:00Z,00000380,01000600,0002.29,0002.03,0000.85,0000.64,0000.56,0000.27,0000.23,0000.21,0000.15,22.5,00.0,0617.4,30.8
2020-03-16T00:06:00Z,00000380,01000600,0001.57,0001.79,0000.86,-000.00,0000.24,0000.54,0000.19,0000.22,0000.14,22.5,00.0,0617.4,30.8
2020-03-16T00:07:00Z,00000380,01000600,0001.72,0002.03,0001.07,0000.71,0000.44,0000.43,0000.13,0000.14,0000.13,22.5,00.0,0617.4,30.8
2020-03-16T00:08:00Z,00000380,01000600,0002.80,0002.23,0000.91,0000.62,0000.14,-000.24,0000.31,0000.33,0000.17,22.5,00.0,0617.4,30.8
2020-03-16T00:09:00Z,00000380,01000600,0003.45,0001.47,0000.81,0000.30,0000.50,0000.26,0000.20,0000.16,0000.12,22.5,00.0,0617.4,30.8
2020-03-16T00:10:00Z,00000380,01000600,0003.09,0002.17,0000.45,0000.13,0000.48,0000.26,0000.21,0000.17,0000.19,22.5,00.0,0617.4,30.8
2020-03-16T00:11:00Z,00000380,01000600,0002.83,0001.84,0000.83,0000.59,0000.06,0000.85,0000.20,0000.22,0000.19,22.5,00.0,0617.4,30.8
2020-03-16T00:12:00Z,00000380,01000600,0002.34,0002.07,0001.00,0001.20,-000.35,0000.25,0000.25,0000.22,0000.14,22.5,00.0,0617.4,30.8
2020-03-16T00:13:00Z,00000380,01000600,0003.69,0001.26,0000.89,0001.52,0000.28,0000.26,0000.05,0000.26,0000.19,22.5,00.0,0617.3,30.8
2020-03-16T00:14:00Z,00000380,01000600,0001.77,0002.05,0000.86,0000.29,0000.31,-000.07,0000.39,0000.15,0000.11,22.4,00.0,0617.3,30.8
2020-03-16T00:15:00Z,00000380,01000600,0001.94,0001.65,0000.61,0000.76,0000.71,-000.03,0000.08,0000.23,0000.31,22.4,00.0,0617.2,30.8
2020-03-16T00:16:00Z,00000380,01000600,0002.69,0001.75,0001.22,0000.59,0000.11,0000.15,0000.49,0000.20,0000.05,22.4,00.0,0617.3,30.8
2020-03-16T00:17:00Z,00000380,01000600,0001.60,0001.49,0000.47,0000.44,0000.04,-000.12,0000.20,0000.32,0000.22,22.4,00.0,0617.3,30.8
2020-03-16T00:18:00Z,00000380,01000600,0002.56,0001.76,0000.92,0000.26,0000.53,0000.44,0000.22,0000.23,0000.17,22.4,00.0,0617.3,30.8
2020-03-16T00:19:00Z,00000380,01000600,0001.48,0001.20,0000.71,0000.79,0000.38,0000.42,0000.26,0000.08,0000.13,22.4,00.0,0617.3,30.8
2020-03-16T00:20:00Z,00000380,01000600,0003.10,0001.41,0001.19,0000.41,0000.08,0000.08,0000.18,0000.10,0000.28,22.4,00.0,0617.2,30.8
2020-03-16T00:21:00Z,00000380,01000600,0001.91,0001.55,0000.72,0000.47,0000.09,0000.35,0000.31,0000.38,0000.12,22.4,00.0,0617.3,30.8
2020-03-16T00:22:00Z,00000380,01000600,0003.08,0001.42,0000.30,0000.93,0000.21,0000.48,0000.16,0000.11,0000.10,22.4,00.0,0617.3,30.8
2020-03-16T00:23:00Z,00000380,01000600,0002.20,0001.52,0000.23,-000.32,0000.01,0000.34,0000.22,0000.14,0000.18,22.4,00.0,0617.3,30.8
2020-03-16T00:24:00Z,00000380,01000600,0001.87,0001.15,0000.83,0000.02,0000.10,0000.36,0000.26,0000.35,0000.21,22.4,00.0,0617.3,30.8
2020-03-16T00:25:00Z,00000380,01000600,0003.30,0001.56,0000.88,0001.65,0000.34,0000.36,0000.18,0000.08,0000.07,22.4,00.0,0617.4,30.8
2020-03-16T00:26:00Z,00000380,01000600,0000.98,0002.07,0000.99,0000.21,0000.58,0000.13,0000.21,0000.18,0000.23,22.4,00.0,0617.4,30.8
2020-03-16T00:27:00Z,00000380,01000600,0002.23,0001.23,0001.00,0000.17,0000.02,0000.46,0000.15,0000.32,0000.12,22.4,00.0,0617.5,30.8
2020-03-16T00:28:00Z,00000380,01000600,0002.30,0001.53,0000.83,-000.40,0000.39,0000.68,0000.11,0000.28,0000.10,22.4,00.0,0617.4,30.8
2020-03-16T00:29:00Z,00000380,01000600,0002.66,0001.25,0000.69,0000.71,0000.46,0000.51,0000.34,0000.13,0000.11,22.4,00.0,0617.4,30.8
2020-03-16T00:30:00Z,00000380,01000600,0001.89,0001.77,0001.31,0000.66,0000.37,0000.15,-000.04,0000.18,0000.14,22.3,00.0,0617.3,30.8
2020-03-16T00:31:00Z,00000380,01000600,0002.99,0001.78,0000.39,0000.42,0000.28,0000.38,0000.30,0000.03,0000.25,22.3,00.0,0617.3,30.8
2020-03-16T00:32:00Z,00000380,01000600,0002.02,0001.52,0000.42,0000.13,0000.43,0000.29,0000.26,0000.24,0000.02,22.3,00.0,0617.3,30.8
2020-03-16T00:33:00Z,00000380,01000600,0003.34,0002.19,0000.90,0001.04,0000.31,0000.25,0000.20,0000.14,0000.12,22.3,00.0,0617.2,30.8
2020-03-16T00:34:00Z,00000380,01000600,0002.90,0001.48,0000.89,0000.08,0000.09,0000.23,0000.16,0000.24,0000.17,22.3,00.0,0617.2,30.8
2020-03-16T00:35:00Z,00000380,01000600,0002.59,0001.69,0000.48,0000.52,0000.50,0000.29,0000.26,0000.04,0000.16,22.3,00.0,0617.2,30.8
2020-03-16T00:36:00Z,00000380,01000600,0002.19,0001.76,0000.70,0001.33,0000.45,0000.41,0000.26,0000.36,0000.29,22.3,00.0,0617.2,30.8
2020-03-16T00:37:00Z,00000380,01000600,0002.43,0001.20,0000.76,0000.09,-000.07,0000.36,0000.29,0000.18,0000.07,22.3,00.0,0617.2,30.8
2020-03-16T00:38:00Z,00000380,01000600,0002.32,0001.45,0000.52,0000.00,0000.58,0000.96,0000.27,0000.16,0000.18,22.3,00.0,0617.2,30.8
2020-03-16T00:39:00Z,00000380,01000600,0003.72,0001.65,0000.56,0000.08,-000.01,0000.08,0000.11,0000.33,0000.17,22.3,00.0,0617.2,30.8
2020-03-16T00:40:00Z,00000380,01000600,0002.93,0001.54,0000.64,-000.29,0000.40,0000.42,0000.28,0000.22,0000.19,22.3,00.0,0617.2,30.8
2020-03-16T00:41:00Z,00000380,01000600,0002.16,0001.44,0000.82,0000.84,0000.30,0000.23,0000.27,0000.15,0000.23,22.3,00.0,0617.2,30.8
2020-03-16T00:42:00Z,00000380,01000600,0001.55,0001.68,0000.52,-000.37,0000.52,0000.21,0000.09,0000.17,0000.17,22.4,00.0,0617.2,30.8
2020-03-16T00:43:00Z,00000380,01000600,0000.35,0001.46,0000.55,0000.53,0000.16,-000.06,0000.30,0000.46,0000.06,22.4,00.0,0617.2,30.8
2020-03-16T00:44:00Z,00000380,01000600,0001.70,0001.09,0000.59,0000.74,0000.04,0000.50,0000.13,0000.11,0000.18,22.3,00.0,0617.2,30.8
2020-03-16T00:45:00Z,00000380,01000600,0003.13,0001.91,0000.19,0000.08,0000.33,-000.01,0000.22,0000.19,0000.20,22.3,00.0,0617.2,30.8
2020-03-16T00:46:00Z,00000380,01000600,0002.48,0002.05,0001.26,0000.02,0000.45,0000.52,0000.25,0000.11,0000.08,22.3,00.0,0617.2,30.8
2020-03-16T00:47:00Z,00000380,01000600,0003.03,0001.14,0001.21,0000.33,0000.59,0000.23,0000.30,0000.28,0000.28,22.3,00.0,0617.2,30.8
2020-03-16T00:48:00Z,00000380,01000600,0001.94,0001.44,0000.70,0000.45,0000.02,0000.14,0000.21,0000.32,0000.18,22.3,00.0,0617.1,30.8
2020-03-16T00:49:00Z,00000380,01000600,0003.26,0001.74,0001.01,-000.30,0000.22,0000.46,0000.27,0000.14,0000.22,22.3,00.0,0617.2,30.8
2020-03-16T00:50:00Z,00000380,01000600,0001.57,0001.66,0001.04,-000.37,0000.52,0000.24,0000.30,0000.15,0000.22,22.3,00.0,0617.3,30.8
2020-03-16T00:51:00Z,00000380,01000600,0002.88,0001.89,0000.66,0001.20,0000.50,0000.03,0000.19,0000.19,0000.12,22.3,00.0,0617.3,30.8
2020-03-16T00:52:00Z,00000380,01000600,0002.91,0001.84,0000.97,-000.16,0000.57,0000.23,0000.25,0000.29,0000.10,22.3,00.0,0617.3,30.8
2020-03-16T00:53:00Z,00000380,01000600,0001.92,0001.41,0000.69,0000.16,0000.24,-000.16,0000.27,0000.24,0000.22,22.3,00.0,0617.2,30.8
2020-03-16T00:54:00Z,00000380,01000600,0002.52,0002.50,0001.14,0000.56,0000.68,0000.38,0000.09,0000.19,0000.21,22.3,00.0,0617.2,30.8
2020-03-16T00:55:00Z,00000380,01000600,0002.33,0001.87,0000.40,0000.94,0000.03,-000.06,0000.35,0000.15,0000.08,22.3,00.0,0617.3,30.8
2020-03-16T00:56:00Z,00000380,01000600,0001.34,0001.10,0000.67,0000.66,0000.36,0000.11,0000.11,0000.27,0000.17,22.3,00.0,0617.2,30.8
2020-03-16T00:57:00Z,00000380,41000600,,,,,,,,,,22.4,00.0,0617.3,30.8
2020-03-16T00:58:00Z,00000380,61000600,,,,,,,,,,22.5,00.0,0616.4,30.8
2020-03-16T00:59:00Z,00000380,21000600,,,,,,,,,,22.6,00.0,0616.3,30.8
2020-03-16T01:00:00Z,00000380,21000600,,,,,,,,,,22.6,00.0,0616.3,30.8
2020-03-16T01:01:00Z,00000380,21000600,,,,,,,,,,22.6,00.0,0616.3,30.8
2020-03-16T01:02:00Z,00000380,21000600,,,,,,,,,,22.6,00.0,0616.3,30.8
2020-03-16T01:03:00Z,00000380,61000600,,,,,,,,,,22.6,00.0,0616.3,30.8
2020-03-16T01:04:00Z,00000380,41000600,0001.48,0001.09,0000.94,0000.71,0000.28,0000.13,0000.27,0000.22,0000.18,22.3,00.0,0617.1,30.8
2020-03-16T01:05:00Z,00000380,01000600,0000.88,0000.83,0001.02,0000.78,0000.77,0000.55,0000.09,0000.20,0000.21,22.2,00.0,0617.3,30.8
2020-03-16T01:06:00Z,00000380,01000600,0003.12,0001.76,0000.76,0001.05,0000.58,0000.22,0000.32,0000.24,0000.10,22.2,00.0,0617.3,30.8
2020-03-16T01:07:00Z,00000380,01000600,0002.47,0001.53,0000.89,0000.74,0000.20,0000.35,0000.32,0000.32,0000.28,22.2,00.0,0617.3,30.8
2020-03-16T01:08:00Z,00000380,01000600,0003.14,0001.92,0001.34,0000.89,0000.34,0000.53,0000.18,0000.21,0000.13,22.2,00.0,0617.3,30.8
2020-03-16T01:09:00Z,00000380,01000600,0001.78,0000.84,0001.05,0000.70,0000.52,0000.25,0000.24,0000.23,0000.09,22.2,00.0,0617.4,30.8
2020-03-16T01:10:00Z,00000380,01000600,0001.92,0001.34,0001.18,0000.95,0000.32,0000.37,0000.24,0000.24,0000.25,22.2,00.0,0617.3,30.8
2020-03-16T01:11:00Z,00000380,01000600,0002.08,0001.38,0000.46,0001.42,0000.55,0000.38,0000.22,0000.13,0000.18,22.2,00.0,0617.4,30.8
2020-03-16T01:12:00Z,00000380,01000600,0002.44,0001.21,0000.74,0000.49,0000.26,-000.04,0000.18,0000.28,0000.16,22.2,00.0,0617.4,30.8
2020-03-16T01:13:00Z,00000380,01000600,0001.62,0001.46,0000.63,0000.31,0000.21,0000.26,0000.32,0000.36,0000.17,22.3,00.0,0617.4,30.8
2020-03-16T01:14:00Z,00000380,01000600,0002.93,0001.50,0000.84,-000.23,0000.20,0000.19,-000.04,0000.12,0000.03,22.2,00.0,0617.4,30.8
2020-03-16T01:15:00Z,00000380,01000600,0001.48,0002.02,0000.79,0000.63,0000.44,0000.26,0000.43,0000.17,0000.24,22.2,00.0,0617.4,30.8
2020-03-16T01:16:00Z,00000380,01000600,0001.89,0001.61,0000.28,-000.07,0000.54,0000.45,0000.19,0000.15,0000.12,22.2,00.0,0617.3,30.8
2020-03-16T01:17:00Z,00000380,01000600,0002.57,0001.28,0000.42,0000.88,0000.61,0000.44,0000.46,0000.29,0000.26,22.1,00.0,0617.3,30.8
2020-03-16T01:18:00Z,00000380,01000600,0000.79,0001.75,0000.86,0000.81,0000.30,0000.41,0000.18,0000.14,0000.22,22.1,00.0,0617.4,30.8
2020-03-16T01:19:00Z,00000380,01000600,0000.74,0001.77,0000.41,0000.32,0000.62,0000.06,0000.22,0000.42,0000.10,22.2,00.0,0617.4,30.8
2020-03-16T01:20:00Z,00000380,01000600,0001.75,0001.18,0000.56,0000.73,0000.49,0000.61,0000.26,0000.18,0000.30,22.2,00.0,0617.4,30.8
2020-03-16T01:21:00Z,00000380,01000600,0002.03,0001.58,0000.70,0000.45,0000.24,0000.40,0000.38,0000.04,0000.07,22.2,00.0,0617.4,30.8
2020-03-16T01:22:00Z,00000380,01000600,0002.64,0001.46,0000.74,0000.84,0000.16,-000.08,0000.13,0000.40,0000.25,22.2,00.0,0617.4,30.8
2020-03-16T01:23:00Z,00000380,01000600,0003.02,0001.43,0000.80,0000.52,0000.21,0000.32,0000.26,0000.30,0000.15,22.2,00.0,0617.4,30.8
2020-03-16T01:24:00Z,00000380,01000600,0001.38,0001.97,0000.46,0000.25,0000.35,0000.16,0000.26,0000.19,0000.23,22.2,00.0,0617.4,30.8
2020-03-16T01:25:00Z,00000380,01000600,0002.90,0001.57,0000.75,0000.65,0000.18,-000.14,0000.13,0000.07,0000.05,22.3,00.0,0617.5,30.8
2020-03-16T01:26:00Z,00000380,01000600,0003.22,0002.13,0000.52,-000.29,0000.19,0000.16,0000.32,0000.31,0000.17,22.3,00.0,0617.5,30.8
2020-03-16T01:27:00Z,00000380,01000600,0002.73,0001.74,0000.90,0000.07,0000.47,-000.00,0000.31,0000.15,0000.27,22.3,00.0,0617.5,30.8
2020-03-16T01:28:00Z,00000380,01000600,0001.38,0001.54,0001.12,0000.47,0000.17,0000.34,0000.07,0000.20,0000.19,22.3,00.0,0617.6,30.8
2020-03-16T01:29:00Z,00000380,01000600,0002.32,0001.88,0000.92,0000.86,0000.20,0000.28,0000.10,0000.23,0000.03,22.3,00.0,0617.6,30.8
2020-03-16T01:30:00Z,00000380,01000600,0002.59,0001.26,0000.74,-000.23,0000.53,0000.44,0000.08,0000.19,0000.00,22.2,00.0,0617.6,30.8
2020-03-16T01:31:00Z,00000380,01000600,0002.22,0001.86,0000.97,0000.64,0000.43,0000.73,0000.36,0000.18,0000.21,22.2,00.0,0617.6,30.9
2020-03-16T01:32:00Z,00000380,01000600,0001.93,0001.26,0000.96,0000.08,0000.16,0000.22,0000.18,0000.10,0000.31,22.2,00.0,0617.6,30.8
2020-03-16T01:33:00Z,00000380,01000600,0002.33,0001.14,0000.52,0001.12,0000.28,-000.05,0000.37,0000.14,0000.07,22.2,00.0,0617.6,30.8
2020-03-16T01:34:00Z,00000380,01000600,0002.18,0001.53,0000.76,0001.15,0000.19,0000.21,0000.21,0000.25,0000.13,22.2,00.0,0617.5,30.8
2020-03-16T01:35:00Z,00000380,01000600,0001.62,0001.76,0000.45,0000.54,0000.36,0000.19,0000.16,0000.25,0000.15,22.2,00.0,0617.6,30.8
2020-03-16T01:36:00Z,00000380,01000600,0002.55,0001.62,0000.65,0001.23,0000.49,-000.46,0000.32,0000.23,0000.26,22.2,00.0,0617.6,30.8
2020-03-16T01:37:00Z,00000380,01000600,0003.49,0001.39,0000.68,0000.45,0000.83,0000.35,0000.19,0000.20,0000.24,22.3,00.0,0617.6,30.8
2020-03-16T01:38:00Z,00000380,01000600,0002.48,0001.51,0001.07,0000.46,0000.60,0000.18,0000.24,0000.24,0000.05,22.3,00.0,0617.7,30.8
2020-03-16T01:39:00Z,00000380,01000600,0001.61,0001.87,0000.89,0000.83,0000.00,0000.01,0000.25,0000.26,0000.35,22.3,00.0,0617.6,30.8
2020-03-16T01:40:00Z,00000380,01000600,0003.40,0000.98,0000.56,-000.20,0000.65,0000.21,0000.20,0000.13,0000.04,22.3,00.0,0617.6,30.8
2020-03-16T01:41:00Z,00000380,01000600,0003.16,0001.59,0001.32,0001.37,0000.11,0000.23,0000.24,0000.19,0000.14,22.4,00.0,0617.7,30.8
2020-03-16T01:42:00Z,00000380,01000600,0002.33,0001.29,0000.95,0000.18,0000.58,0000.08,0000.37,0000.36,0000.21,22.4,00.0,0617.7,30.8
2020-03-16T01:43:00Z,00000380,01000600,0002.93,0002.36,0001.03,0000.13,0000.34,0000.48,-000.07,0000.21,0000.06,22.4,00.0,0617.7,30.9
2020-03-16T01:44:00Z,00000380,01000600,0002.54,0001.26,0000.81,0000.51,0000.43,-000.01,0000.20,0000.23,0000.23,22.3,00.0,0617.6,30.9
2020-03-16T01:45:00Z,00000380,01000600,0002.03,0001.72,0001.39,0001.18,0000.31,0000.56,0000.36,0000.08,0000.09,22.3,00.0,0617.6,30.9
2020-03-16T01:46:00Z,00000380,01000600,0002.31,0001.78,0000.52,0000.27,0000.40,0000.38,0000.24,0000.27,0000.25,22.3,00.0,0617.5,30.9
2020-03-16T01:47:00Z,00000380,01000600,0002.78,0001.11,0000.26,0001.47,0000.34,0000.04,0000.32,0000.19,0000.18,22.3,00.0,0617.5,30.8
2020-03-16T01:48:00Z,00000380,01000600,0003.88,0001.29,0000.83,0001.63,0000.51,0000.36,0000.19,0000.25,0000.21,22.2,00.0,0617.5,30.8
2020-03-16T01:49:00Z,00000380,01000600,0002.27,0001.05,0000.75,0000.26,0000.26,0000.77,0000.32,0000.23,0000.23,22.3,00.0,0617.4,30.8
2020-03-16T01:50:00Z,00000380,01000600,0003.21,0002.06,0001.05,0001.23,0000.37,0000.24,0000.31,0000.25,0000.28,22.3,00.0,0617.3,30.8
2020-03-16T01:51:00Z,00000380,01000600,0002.31,0001.62,0001.03,0000.53,-000.17,0000.28,0000.32,0000.31,0000.09,22.3,00.0,0617.3,30.8
2020-03-16T01:52:00Z,00000380,01000600,0001.31,0001.20,0001.11,0001.28,0000.75,-000.00,0000.16,0000.23,0000.35,22.3,00.0,0617.3,30.8
2020-03-16T01:53:00Z,00000380,01000600,0001.54,0001.26,0000.75,0001.21,0000.51,-000.00,0000.27,0000.24,0000.01,22.3,00.0,0617.3,30.8
2020-03-16T01:54:00Z,00000380,01000600,0002.10,0002.22,0000.66,0000.43,0000.56,0000.46,0000.32,0000.35,0000.30,22.3,00.0,0617.3,30.8
2020-03-16T01:55:00Z,00000380,01000600,0002.30,0001.42,0000.63,0000.43,0000.38,0000.58,0000.16,0000.27,0000.25,22.3,00.0,0617.3,30.8
2020-03-16T01:56:00Z,00000380,01000600,0002.43,0001.49,0000.97,0000.93,0000.30,0000.56,0000.32,0000.21,0000.12,22.4,00.0,0617.4,30.8
2020-03-16T01:57:00Z,00000380,41000600,,,,,,,,,,22.4,00.0,0617.3,30.8
2020-03-16T01:58:00Z,00000380,61000600,,,,,,,,,,22.5,00.0,0616.5,30.9
2020-03-16T01:59:00Z,00000380,21000600,,,,,,,,,,22.6,00.0,0616.4,30.9
2020-03-16T02:00:00Z,00000380,21000600,,,,,,,,,,22.6,00.0,0616.4,30.9
2020-03-16T02:01:00Z,00000380,21000600,,,,,,,,,,22.6,00.0,0616.4,30.9
2020-03-16T02:02:00Z,00000380,21000600,,,,,,,,,,22.6,00.0,0616.4,30.8
2020-03-16T02:03:00Z,00000380,61000600,,,,,,,,,,22.6,00.0,0616.4,30.8
2020-03-16T02:04:00Z,00000380,41000600,0002.60,0001.06,0001.10,0000.11,0000.41,0000.22,0000.23,0000.31,0000.15,22.3,00.0,0617.2,30.8
2020-03-16T02:05:00Z,00000380,01000600,0002.48,0001.27,0001.12,-000.26,0000.49,-000.14,0000.30,0000.38,0000.32,22.3,00.0,0617.2,30.8
2020-03-16T02:06:00Z,00000380,01000600,0003.60,0001.55,0001.19,-000.39,0000.50,0000.55,0000.28,0000.14,0000.23,22.3,00.0,0617.2,30.8
2020-03-16T02:07:00Z,00000380,01000600,0003.65,0001.77,0000.73,-000.99,0000.74,0000.24,0000.23,0000.20,0000.15,22.3,00.0,0617.3,30.8
2020-03-16T02:08:00Z,00000380,01000600,0003.71,0001.87,0001.01,0000.32,0000.61,0000.29,0000.28,0000.28,0000.21,22.3,00.0,0617.3,30.8
2020-03-16T02:09:00Z,00000380,01000600,0002.44,0001.70,0001.01,-000.02,-000.03,0000.39,0000.26,0000.19,0000.16,22.3,00.0,0617.3,30.8
2020-03-16T02:10:00Z,00000380,01000600,0002.44,0001.34,0001.30,0000.73,0000.43,0000.35,0000.15,0000.35,0000.23,22.3,00.0,0617.3,30.8
2020-03-16T02:11:00Z,00000380,01000600,0003.41,0001.55,0001.17,0000.30,0000.38,0000.49,0000.30,0000.23,0000.14,22.3,00.0,0617.4,30.8
2020-03-16T02:12:00Z,00000380,01000600,0003.11,0002.00,0000.72,0000.77,0000.30,0000.21,0000.27,0000.15,0000.17,22.3,00.0,0617.4,30.8
2020-03-16T02:13:00Z,00000380,01000600,0003.12,0001.37,0001.00,0000.22,0000.53,0000.13,0000.12,0000.36,0000.15,22.3,00.0,0617.4,30.8
2020-03-16T02:14:00Z,00000380,01000600,0003.85,0001.63,0000.78,-000.25,0000.18,0000.45,0000.13,-000.01,0000.07,22.2,00.0,0617.4,30.8
2020-03-16T02:15:00Z,00000380,01000600,0003.41,0001.51,0000.85,0000.61,0000.38,0000.10,0000.23,0000.27,0000.27,22.2,00.0,0617.4,30.8
2020-03-16T02:16:00Z,00000380,01000600,0002.07,0001.40,0001.15,0000.29,0000.35,0000.35,0000.25,0000.17,0000.09,22.2,00.0,0617.4,30.8
2020-03-16T02:17:00Z,00000380,01000600,0002.36,0001.09,0001.12,0000.08,0000.35,0000.13,0000.33,0000.35,0000.33,22.2,00.0,0617.4,30.8
2020-03-16T02:18:00Z,00000380,01000600,0002.06,0001.72,0001.05,0000.57,0000.23,0000.25,0000.22,0000.12,-000.07,22.2,00.0,0617.4,30.8
2020-03-16T02:19:00Z,00000380,01000600,0002.22,0001.36,0001.35,-000.38,0000.12,0000.29,0000.30,0000.20,0000.34,22.1,00.0,0617.3,30.8
2020-03-16T02:20:00Z,00000380,01000600,0002.93,0001.34,0001.05,0000.13,-000.27,-000.08,0000.35,0000.24,0000.14,22.1,00.0,0617.3,30.8
2020-03-16T02:21:00Z,00000380,01000600,0002.52,0002.07,0001.36,0000.01,0000.23,0000.20,0000.12,0000.37,0000.24,22.1,00.0,0617.3,30.8
2020-03-16T02:22:00Z,00000380,01000600,0003.38,0001.19,0001.20,0000.66,0000.65,0000.34,0000.27,0000.10,0000.21,22.1,00.0,0617.3,30.8
2020-03-16T02:23:00Z,00000380,01000600,0004.43,0000.93,0001.09,-000.16,-000.16,0000.10,0000.22,0000.40,0000.23,22.2,00.0,0617.3,30.8
2020-03-16T02:24:00Z,00000380,01000600,0001.90,0001.30,0000.83,0000.09,0000.40,0000.29,0000.38,0000.19,0000.13,22.2,00.0,0617.2,30.8
2020-03-16T02:25:00Z,00000380,01000600,0003.35,0001.00,0000.67,0000.31,0000.38,-000.16,0000.15,0000.23,0000.18,22.2,00.0,0617.3,30.8
2020-03-16T02:26:00Z,00000380,01000600,0002.89,0001.58,0001.09,0000.50,0000.26,0000.01,0000.31,0000.33,0000.23,22.2,00.0,0617.4,30.8
2020-03-16T02:27:00Z,00000380,01000600,0003.84,0002.22,0001.25,0000.88,0000.51,0000.27,0000.07,0000.25,0000.14,22.2,00.0,0617.4,30.8
2020-03-16T02:28:00Z,00000380,01000600,0003.79,0002.00,0001.91,0000.55,-000.33,0000.36,0000.34,0000.02,0000.00,22.1,00.0,0617.2,30.8
2020-03-16T02:29:00Z,00000380,01000600,0002.50,0001.65,0001.39,0000.22,0000.19,0000.35,0000.06,0000.32,0000.15,22.1,00.0,0617.2,30.8
2020-03-16T02:30:00Z,00000380,01000600,0004.09,0001.54,0000.89,-000.12,-000.03,0000.60,0000.23,0000.23,0000.23,22.1,00.0,0617.2,30.8
2020-03-16T02:31:00Z,00000380,01000600,0002.15,0002.01,0000.64,0000.43,0000.53,0000.06,0000.38,0000.22,0000.23,22.0,00.0,0617.2,30.8
2020-03-16T02:32:00Z,00000380,01000600,0002.04,0001.84,0001.53,-000.15,0000.33,0000.52,0000.32,0000.11,0000.19,22.0,00.0,0617.3,30.8
2020-03-16T02:33:00Z,00000380,01000600,0003.04,0001.46,0001.10,0000.30,0000.26,0000.21,0000.13,0000.27,0000.23,22.0,00.0,0617.3,30.8
2020-03-16T02:34:00Z,00000380,01000600,0003.34,0001.46,0000.84,0000.09,0000.39,0000.22,0000.24,0000.28,0000.11,22.0,00.0,0617.4,30.8
2020-03-16T02:35:00Z,00000380,01000600,0002.36,0002.11,0000.68,-000.39,0000.65,0000.43,0000.27,0000.12,0000.14,22.0,00.0,0617.4,30.8
2020-03-16T02:36:00Z,00000380,01000600,0002.44,0001.25,0000.61,-000.03,0000.52,0000.34,0000.30,0000.17,0000.24,22.0,00.0,0617.4,30.8
2020-03-16T02:37:00Z,00000380,01000600,0003.55,0002.11,0001.35,-000.11,0000.60,0000.19,0000.17,0000.23,0000.14,22.0,00.0,0617.4,30.8
2020-03-16T02:38:00Z,00000380,01000600,0003.25,0001.88,0001.04,-000.11,0000.28,0000.10,0000.25,0000.23,0000.30,22.0,00.0,0617.4,30.8
2020-03-16T02:39:00Z,00000380,01000600,0003.35,0001.11,0000.89,-000.21,0000.07,0000.10,0000.22,0000.33,-000.00,22.1,00.0,0617.3,30.8
2020-03-16T02:40:00Z,00000380,01000600,0002.52,0001.34,0000.93,-000.47,0000.60,0000.40,0000.23,0000.16,0000.26,22.1,00.0,0617.4,30.8
2020-03-16T02:41:00Z,00000380,01000600,0003.67,0001.54,0000.85,0000.13,0000.23,0000.23,0000.20,0000.16,0000.17,22.1,00.0,0617.5,30.8
2020-03-16T02:42:00Z,00000380,01000600,0002.39,0001.96,0000.99,-000.33,0000.23,0000.12,0000.35,0000.37,0000.18,22.1,00.0,0617.5,30.8
2020-03-16T02:43:00Z,00000380,01000600,0003.14,0001.31,0001.79,-000.07,0000.09,0000.16,0000.20,0000.06,0000.12,22.1,00.0,0617.5,30.8
2020-03-16T02:44:00Z,00000380,01000600,0003.28,0001.66,0001.18,-000.02,0000.30,0000.33,0000.19,0000.35,0000.19,22.1,00.0,0617.5,30.8
2020-03-16T02:45:00Z,00000380,01000600,0003.83,0001.46,0000.99,-000.36,-000.03,0000.31,0000.24,0000.30,0000.15,22.1,00.0,0617.5,30.8
2020-03-16T02:46:00Z,00000380,01000600,0003.96,0001.12,0001.00,0000.20,0000.26,0000.35,0000.22,0000.28,0000.32,22.1,00.0,0617.5,30.8
2020-03-16T02:47:00Z,00000380,01000600,0002.66,0002.11,0001.27,-000.28,0000.62,0000.57,0000.17,0000.12,0000.10,22.1,00.0,0617.6,30.8
2020-03-16T02:48:00Z,00000380,01000600,0001.97,0001.24,0001.45,-000.54,0000.06,0000.25,0000.27,0000.09,0000.05,22.1,00.0,0617.6,30.8
2020-03-16T02:49:00Z,00000380,01000600,0003.42,0002.08,0000.97,0000.08,0000.02,0000.45,0000.19,0000.23,0000.26,22.1,00.0,0617.6,30.8
2020-03-16T02:50:00Z,00000380,01000600,0003.15,0001.54,0000.95,-000.05,0000.66,0000.03,0000.39,0000.31,0000.19,22.1,00.0,0617.6,30.8
2020-03-16T02:51:00Z,00000380,01000600,0003.02,0001.75,0000.93,0000.04,0000.39,0000.15,0000.21,0000.26,0000.16,22.1,00.0,0617.6,30.8
2020-03-16T02:52:00Z,00000380,01000600,0002.54,0001.19,0000.94,0000.90,0000.27,-000.04,0000.21,0000.11,0000.11,22.1,00.0,0617.6,30.8
2020-03-16T02:53:00Z,00000380,01000600,0002.80,0001.65,0001.16,-000.27,0000.47,0000.11,0000.20,0000.31,0000.20,22.1,00.0,0617.6,30.8
2020-03-16T02:54:00Z,00000380,01000600,0001.80,0001.72,0000.77,0000.43,0000.28,0000.46,0000.26,0000.24,0000.14,22.1,00.0,0617.6,30.8
2020-03-16T02:55:00Z,00000380,01000600,0002.91,0001.76,0001.46,0000.43,0000.43,0000.17,0000.30,0000.13,0000.20,22.1,00.0,0617.7,30.8
2020-03-16T02:56:00Z,00000380,01000600,0003.22,0001.21,0001.20,-000.69,0000.33,0000.18,0000.23,0000.27,0000.21,22.1,00.0,0617.7,30.8
2020-03-16T02:57:00Z,00000380,41000600,,,,,,,,,,22.1,00.0,0617.7,30.8
2020-03-16T02:58:00Z,00000380,61000600,,,,,,,,,,22.3,00.0,0616.8,30.8
2020-03-16T02:59:00Z,00000380,21000600,,,,,,,,,,22.4,00.0,0616.8,30.8
2020-03-16T03:00:00Z,00000380,21000600,,,,,,,,,,22.4,00.0,0616.8,30.8
2020-03-16T03:01:00Z,00000380,21000600,,,,,,,,,,22.4,00.0,0616.7,30.8
2020-03-16T03:02:00Z,00000380,21000600,,,,,,,,,,22.4,00.0,0616.7,30.8
2020-03-16T03:03:00Z,00000380,61000600,,,,,,,,,,22.4,00.0,0616.7,30.8
2020-03-16T03:04:00Z,00000380,41000600,0002.31,0001.37,0000.63,0001.17,0000.69,-000.14,0000.27,0000.32,0000.27,22.2,00.0,0617.6,30.8
2020-03-16T03:05:00Z,00000380,01000600,0003.48,0001.29,0000.76,0000.42,-000.08,0000.16,0000.23,0000.15,0000.15,22.1,00.0,0617.7,30.8
2020-03-16T03:06:00Z,00000380,01000600,0002.91,0001.39,0001.20,0000.18,0000.11,0000.67,0000.28,0000.23,0000.18,22.1,00.0,0617.7,30.8
2020-03-16T03:07:00Z,00000380,01000600,0002.43,0001.26,0001.34,0000.46,0000.17,0000.28,0000.17,0000.30,0000.10,22.1,00.0,0617.7,30.8
2020-03-16T03:08:00Z,00000380,01000600,0003.43,0001.37,0001.04,-000.45,0000.52,-000.03,0000.31,0000.28,0000.39,22.1,00.0,0617.8,30.8
2020-03-16T03:09:00Z,00000380,01000600,0002.85,0001.71,0001.16,0000.80,0000.43,0000.40,0000.14,0000.22,-000.03,22.1,00.0,0617.8,30.8
2020-03-16T03:10:00Z,00000380,01000600,0002.57,0001.76,0001.56,-000.27,0000.52,0000.35,0000.33,0000.27,0000.27,22.1,00.0,0617.8,30.8